Location: Baturyn
(53.6332°N, 113.5041°W)
Time: 04:39:31
(UTC+00:00)

N. Korean satellite - Pass Details

Date: 07 December 2021
Orbit: 446 x 492 km, 97.3° (Epoch: 16 January)

Event Time Altitude Azimuth Distance (km) Brightness Sun altitude
Rises 14:13:57 0° 1° (N) 2,472 9.9 -11.3°
Reaches altitude 10° 14:16:28 10° 341° (NNW) 1,590 8.8 -11.0°
Maximum altitude 14:18:46 17° 299° (WNW) 1,207 7.9 -10.6°
Drops below altitude 10° 14:21:03 10° 256° (WSW) 1,578 8.7 -10.3°
Sets 14:23:40 0° 235° (SW) 2,491 9.9 -10.0°
